Location: Appleton
(44.2618°N, 88.4157°W)
Time: 09:58:42
(UTC+00:00)

S-56A Canister/Altair - Pass Details

Date: 05 March 2021
Orbit: 632 x 2500 km, 38.9° (Epoch: 14 April)

Event Time Altitude Azimuth Distance (km) Brightness Sun altitude
Rises 16:29:38 0° 186° (S) 4,974 12.4 35.5°
Reaches altitude 10° 16:33:52 10° 170° (S) 4,295 12.5 35.9°
Maximum altitude 16:41:47 20° 129° (SE) 3,963 12.5 36.6°
Drops below altitude 10° 16:50:55 10° 90° (E) 5,088 12.1 37.3°
Sets 16:56:32 0° 76° (ENE) 6,179 12.2 37.6°
